This is the latest recevied weather packets stored in our database for station/object EA6AMR-10. If no packets are shown the sender has not sent any weather packets the latest 10 day(s).
| Time | Temp. | Humidity | Pressure | Rain* | Wind** | Luminosity | Snow |
|---|---|---|---|---|---|---|---|
| 1777830281 | 21.67° C | 65% | 1014 hPa | - | - | - | - |
| 1777829380 | 22.22° C | 66% | 1013.9 hPa | - | - | - | - |
| 1777828480 | 22.78° C | 65% | 1013.6 hPa | - | - | - | - |
| 1777827580 | 23.33° C | 65% | 1013.5 hPa | - | - | - | - |
| 1777826680 | 24.44° C | 65% | 1013.5 hPa | - | - | - | - |
| 1777825780 | 25.56° C | 64% | 1013.3 hPa | - | - | - | - |
| 1777824879 | 27.22° C | 64% | 1013.4 hPa | - | - | - | - |
| 1777823981 | 28.33° C | 62% | 1013.5 hPa | - | - | - | - |
| 1777823079 | 27.78° C | 63% | 1013.4 hPa | - | - | - | - |
| 1777822179 | 27.78° C | 63% | 1013.5 hPa | - | - | - | - |
| 1777821279 | 28.89° C | 63% | 1013.7 hPa | - | - | - | - |
| 1777820378 | 27.22° C | 64% | 1013.8 hPa | - | - | - | - |
| 1777819477 | 28.89° C | 63% | 1013.9 hPa | - | - | - | - |
| 1777818583 | 28.89° C | 63% | 1014.1 hPa | - | - | - | - |
| 1777817683 | 28.89° C | 63% | 1014.2 hPa | - | - | - | - |
| 1777816783 | 28.89° C | 62% | 1014.3 hPa | - | - | - | - |
| 1777815883 | 26.67° C | 64% | 1014.4 hPa | - | - | - | - |
| 1777814983 | 26.67° C | 64% | 1014.4 hPa | - | - | - | - |
| 1777814082 | 24.44° C | 64% | 1014.6 hPa | - | - | - | - |
| 1777813182 | 24.44° C | 64% | 1014.7 hPa | - | - | - | - |
| 1777812282 | 23.89° C | 65% | 1014.9 hPa | - | - | - | - |
| 1777811382 | 24.44° C | 64% | 1014.8 hPa | - | - | - | - |
| 1777810482 | 23.89° C | 64% | 1014.9 hPa | - | - | - | - |
| 1777809581 | 22.78° C | 65% | 1015.2 hPa | - | - | - | - |
| 1777808681 | 22.22° C | 65% | 1015.4 hPa | - | - | - | - |
* Rain since midnight (hover to see other rain measurements)
** Current wind speed in m/s (hover to see current wind gust speed)